This demonstration page uses our WeatherBlox Daily Observations layout. Learn more.

Left ArrowRight Arrow

Hourly Observations for March 9, 2019

Temp ( °F °C ) Dew Point ( °F °C ) Humidity (%) Winds ( mph kmh ) Pressure ( in mb ) Visibility ( mi km ) Precip ( " mm )
12:51 am 00:51 Clear 41 5 24 -4.4 51 51 NNW 8 13 29.90 1013 10 16 N/A
1:51 am 01:51 Clear 37 2.8 24 -4.4 59 59 N N/A 29.92 1013 10 16 N/A
2:51 am 02:51 Clear 35 1.7 23 -5 61 61 N N/A 29.92 1013 10 16 N/A
3:51 am 03:51 undefined 33 0.6 23 -5 66 66 E 8 13 29.94 1014 10 16 N/A
4:51 am 04:51 Clear 34 1.1 23 -5 64 64 ESE 3 6 29.95 1014 10 16 N/A
5:51 am 05:51 Clear 31 -0.6 23 -5 72 72 E 5 7 30.00 1016 10 16 N/A
6:51 am 06:51 Sunny 31 -0.6 23 -5 72 72 N N/A 30.00 1016 10 16 N/A
7:51 am 07:51 Sunny 38 3.3 25 -3.9 60 60 S 5 7 30.01 1016 10 16 N/A
8:51 am 08:51 Sunny 47 8.3 26 -3.3 44 44 N N/A 30.00 1016 10 16 N/A
9:51 am 09:51 Sunny 51 10.6 24 -4.4 35 35 N N/A 29.99 1016 10 16 N/A
10:51 am 10:51 Sunny 55 12.8 21 -6.1 26 26 SE 10 17 29.95 1014 10 16 N/A
11:51 am 11:51 Sunny 56 13.3 18 -7.8 22 22 VRB 5 7 29.93 1014 10 16 N/A
12:51 pm 12:51 Sunny 58 14.4 20 -6.7 23 23 VRB 6 9 29.91 1013 10 16 N/A
1:51 pm 13:51 Sunny 60 15.6 20 -6.7 21 21 N N/A 29.87 1012 10 16 N/A
2:51 pm 14:51 Sunny 60 15.6 18 -7.8 19 19 W 6 9 29.85 1011 10 16 N/A
4:51 pm 16:51 Sunny 61 16.1 18 -7.8 19 19 NW 7 11 29.85 1011 10 16 N/A
5:51 pm 17:51 Sunny 59 15 20 -6.7 22 22 NW 9 15 29.85 1011 10 16 N/A
6:51 pm 18:51 Clear 57 13.9 23 -5 27 27 W 8 13 29.86 1011 10 16 N/A
7:51 pm 19:51 Clear 54 12.2 25 -3.9 33 33 WNW 3 6 29.85 1011 10 16 N/A
8:51 pm 20:51 Clear 52 11.1 24 -4.4 34 34 WNW 6 9 29.85 1011 10 16 N/A
9:51 pm 21:51 Clear 50 10 24 -4.4 36 36 N 6 9 29.86 1011 10 16 N/A
10:51 pm 22:51 Clear 46 7.8 24 -4.4 42 42 NE 6 9 29.87 1011 10 16 N/A
11:51 pm 23:51 Clear 42 5.6 23 -5 47 47 N N/A 29.87 1011 10 16 N/A

Powered by AerisWeather